GJ7DNI-13 Weather Reports


time (UTC)temp
F
wind
direction
speed
knots
gust
knots
rain 1hr
in
rain 24hr
in
rain mn
in
humidity
%
barometer
mb
20260505041457 54 25 3.5 10.4 0.01 0.01 0.01 87 1010.1
20260505040957 54 27 2.6 7.0 0.01 0.01 0.01 86 1010.2
20260505040457 54 37 2.6 7.0 0.01 0.01 0.01 87 1010.2
20260505035957 54 29 3.5 6.1 0.01 0.01 0.01 86 1010.2
20260505035457 54 27 4.3 11.3 0.01 0.01 0.01 86 1010.3
20260505034957 55 60 3.5 8.7 0.01 0.01 0.01 86 1010.3
20260505034457 55 71 3.5 7.8 0.01 0.01 0.01 86 1010.3
20260505033957 55 48 3.5 10.4 0.01 0.01 0.01 86 1010.3
20260505033457 55 14 3.5 9.6 0.01 0.01 0.01 86 1010.3
20260505032957 55 30 3.5 7.8 0.01 0.01 0.01 86 1010.2
20260505032457 55 50 4.3 7.8 0.01 0.01 0.01 86 1010.2
20260505031957 55 14 3.5 7.8 0.01 0.01 0.01 86 1010.2
20260505031457 55 14 3.5 7.0 0.00 0.00 0.00 86 1010.2
20260505030957 55 21 3.5 7.8 0.00 0.00 0.00 86 1010.3
20260505030457 55 333 2.6 5.2 0.00 0.00 0.00 86 1010.3
20260505025957 55 29 2.6 8.7 0.00 0.00 0.00 86 1010.4
20260505025457 55 20 1.7 4.3 0.00 0.00 0.00 86 1010.4
20260505024957 55 339 2.6 6.1 0.00 0.00 0.00 86 1010.4
20260505024457 55 18 2.6 6.1 0.00 0.00 0.00 86 1010.5
20260505023957 55 21 3.5 6.1 0.00 0.00 0.00 85 1010.5
20260505023457 55 4 4.3 7.8 0.00 0.00 0.00 85 1010.5
20260505022957 55 38 4.3 7.8 0.00 0.00 0.00 85 1010.7
20260505022457 55 43 3.5 7.0 0.00 0.00 0.00 85 1010.8
20260505021957 55 15 3.5 9.6 0.00 0.00 0.00 85 1010.8
20260505021457 55 19 3.5 6.1 0.00 0.00 0.00 85 1010.9
20260505020957 55 12 3.5 5.2 0.00 0.00 0.00 84 1010.9
20260505020457 55 18 2.6 7.0 0.00 0.00 0.00 84 1010.9
20260505015957 55 44 2.6 6.1 0.00 0.00 0.00 84 1010.9
20260505015457 55 20 2.6 7.0 0.00 0.00 0.00 84 1010.9
20260505014957 55 29 3.5 8.7 0.00 0.00 0.00 84 1011.0
20260505014457 55 26 3.5 7.0 0.00 0.00 0.00 84 1011.0
20260505013957 55 14 3.5 6.1 0.00 0.00 0.00 84 1011.0
20260505013457 55 4 3.5 8.7 0.00 0.00 0.00 84 1011.0
20260505012957 55 359 3.5 6.1 0.00 0.00 0.00 84 1011.0
20260505012457 55 27 3.5 4.3 0.00 0.00 0.00 83 1011.1
20260505011957 55 359 2.6 7.8 0.00 0.00 0.00 83 1011.1
20260505011457 55 31 2.6 4.3 0.00 0.00 0.00 83 1011.2
20260505010957 55 35 1.7 5.2 0.00 0.00 0.00 83 1011.2
20260505010457 55 85 1.7 3.5 0.00 0.00 0.00 83 1011.2
20260505005957 55 19 1.7 3.5 0.00 0.00 0.00 83 1011.3
20260505005457 55 32 2.6 5.2 0.00 0.00 0.00 83 1011.2
20260505004957 55 29 2.6 3.5 0.00 0.00 0.00 83 1011.3
20260505004457 55 41 2.6 6.1 0.00 0.00 0.00 83 1011.4
20260505003958 55 54 1.7 4.3 0.00 0.00 0.00 83 1011.4
20260505003457 55 52 1.7 5.2 0.00 0.00 0.00 83 1011.4
20260505002957 55 21 1.7 3.5 0.00 0.00 0.00 83 1011.4
20260505002457 55 15 1.7 3.5 0.00 0.00 0.00 83 1011.4
20260505001957 54 26 1.7 2.6 0.00 0.00 0.00 83 1011.5
20260505001457 54 15 2.6 4.3 0.00 0.00 0.00 83 1011.6
20260505000957 54 336 3.5 4.3 0.00 0.00 0.00 83 1011.6
20260505000457 54 21 3.5 6.1 0.00 0.00 0.00 83 1011.7
20260504235957 54 329 2.6 5.2 0.00 0.00 0.00 83 1011.7
20260504235457 54 11 2.6 6.1 0.00 0.00 0.00 83 1011.7
20260504234957 54 19 2.6 5.2 0.00 0.00 0.00 83 1011.7
20260504234457 54 337 0.9 4.3 0.00 0.00 0.00 83 1011.7
20260504233957 54 15 0.9 2.6 0.00 0.00 0.00 83 1011.7
20260504233457 54 50 1.7 3.5 0.00 0.00 0.00 83 1011.8
20260504232957 54 20 2.6 4.3 0.00 0.00 0.00 83 1011.7
20260504232457 54 323 2.6 6.1 0.00 0.00 0.00 83 1011.8
20260504231957 54 45 2.6 6.1 0.00 0.00 0.00 83 1011.8
20260504231457 54 337 2.6 5.2 0.00 0.00 0.00 83 1011.8
20260504230958 54 359 3.5 7.0 0.00 0.00 0.00 83 1011.8
20260504230457 54 20 2.6 4.3 0.00 0.00 0.00 83 1011.8
20260504225957 54 22 2.6 6.1 0.00 0.00 0.00 83 1011.9
20260504225458 55 11 2.6 4.3 0.00 0.00 0.00 83 1011.9
20260504224958 55 61 3.5 6.1 0.00 0.00 0.00 83 1011.9
20260504224458 55 340 3.5 6.1 0.00 0.00 0.00 83 1011.8
20260504223958 55 42 2.6 7.8 0.00 0.00 0.00 83 1011.9
20260504223458 55 39 2.6 4.3 0.00 0.00 0.00 83 1012.0
20260504222958 55 359 2.6 3.5 0.00 0.00 0.00 83 1012.0
20260504222458 55 8 2.6 7.8 0.00 0.00 0.00 83 1012.0
20260504221958 55 349 1.7 5.2 0.00 0.00 0.00 83 1012.1
20260504221458 55 8 1.7 6.1 0.00 0.00 0.00 83 1012.0
20260504220958 56 354 2.6 4.3 0.00 0.00 0.00 83 1012.0
20260504220458 56 4 2.6 7.0 0.00 0.00 0.00 82 1011.9
20260504215958 56 347 2.6 5.2 0.00 0.00 0.00 82 1011.9
20260504215458 56 4 2.6 5.2 0.00 0.00 0.00 82 1011.9
20260504214958 56 10 1.7 4.3 0.00 0.00 0.00 82 1012.1
20260504214458 56 31 1.7 2.6 0.00 0.00 0.00 82 1012.1
20260504213958 56 25 1.7 3.5 0.00 0.00 0.00 81 1012.1
20260504213458 56 23 1.7 3.5 0.00 0.00 0.00 81 1012.1
20260504212958 56 22 1.7 4.3 0.00 0.00 0.00 81 1012.0
20260504212458 56 23 1.7 3.5 0.00 0.00 0.00 81 1011.9
20260504211958 56 33 0.9 3.5 0.00 0.00 0.00 81 1011.9
20260504211458 56 43 0.9 3.5 0.00 0.00 0.00 80 1012.0
20260504210958 56 65 0.9 2.6 0.00 0.00 0.00 80 1012.0
20260504210458 56 61 0.9 2.6 0.00 0.00 0.00 80 1012.1
20260504205958 56 61 0.9 2.6 0.00 0.00 0.00 80 1012.0
20260504205458 56 63 0.9 2.6 0.00 0.00 0.00 80 1012.0
20260504204958 57 48 1.7 2.6 0.00 0.00 0.00 80 1012.0
20260504204458 57 42 1.7 3.5 0.00 0.00 0.00 80 1012.0
20260504203958 57 26 0.9 2.6 0.00 0.00 0.00 80 1012.0
20260504203458 57 34 1.7 2.6 0.00 0.00 0.00 80 1012.0
20260504202958 57 17 1.7 3.5 0.00 0.00 0.00 80 1012.0
20260504202609 65 20 3.5 7.0 0.00 0.04 0.00 62 1012.1
20260504202458 57 33 1.7 3.5 0.00 0.00 0.00 80 1012.0
20260504201958 57 50 1.7 3.5 0.00 0.00 0.00 80 1012.0
20260504201458 57 20 1.7 3.5 0.00 0.00 0.00 80 1012.0
20260504200958 57 49 1.7 2.6 0.00 0.00 0.00 80 1012.0
20260504200458 57 21 1.7 4.3 0.00 0.00 0.00 80 1011.9
20260504195958 57 16 1.7 5.2 0.00 0.00 0.00 80 1011.8
20260504195458 57 29 1.7 3.5 0.00 0.00 0.00 80 1011.8
20260504194958 57 28 2.6 3.5 0.00 0.00 0.00 80 1011.8
20260504194458 57 19 1.7 3.5 0.00 0.00 0.00 79 1011.8
20260504193958 57 11 2.6 3.5 0.00 0.00 0.00 79 1011.8
20260504193458 57 25 2.6 6.1 0.00 0.00 0.00 79 1011.7
20260504192958 57 27 1.7 4.3 0.00 0.00 0.00 79 1011.6
20260504192458 57 20 1.7 4.3 0.00 0.00 0.00 78 1011.6
20260504191958 57 53 2.6 4.3 0.00 0.00 0.00 78 1011.6
20260504191458 57 17 2.6 4.3 0.00 0.00 0.00 78 1011.6
20260504190958 58 10 2.6 5.2 0.00 0.00 0.00 77 1011.6
20260504190458 57 27 2.6 6.1 0.00 0.00 0.00 77 1011.7
20260504185958 57 35 3.5 5.2 0.00 0.00 0.00 76 1011.7
20260504185458 57 21 4.3 7.0 0.00 0.00 0.00 76 1011.7
20260504184958 58 10 3.5 7.0 0.00 0.00 0.00 75 1011.6
20260504184458 58 338 3.5 7.8 0.00 0.00 0.00 74 1011.6
20260504183958 58 14 3.5 7.8 0.00 0.00 0.00 74 1011.6
20260504183458 58 349 3.5 7.8 0.00 0.00 0.00 74 1011.7
20260504182958 58 359 3.5 5.2 0.00 0.00 0.00 74 1011.7
20260504182458 58 10 3.5 7.8 0.00 0.00 0.00 73 1011.7
20260504181958 58 12 3.5 6.1 0.00 0.00 0.00 73 1011.6
20260504181458 58 328 3.5 5.2 0.00 0.00 0.00 73 1011.6
20260504180958 58 319 3.5 4.3 0.00 0.00 0.00 73 1011.6
20260504180458 58 359 3.5 7.8 0.00 0.00 0.00 73 1011.7
20260504175958 58 347 3.5 6.1 0.00 0.00 0.00 72 1011.6
20260504175458 58 9 4.3 7.0 0.00 0.00 0.00 72 1011.6
20260504174958 58 354 4.3 8.7 0.00 0.00 0.00 72 1011.6
20260504174458 58 339 4.3 8.7 0.00 0.00 0.00 72 1011.7
20260504173958 58 4 4.3 7.8 0.00 0.00 0.00 72 1011.7
20260504173458 58 4 4.3 7.8 0.00 0.00 0.00 72 1011.8
20260504172958 58 27 4.3 7.8 0.00 0.00 0.00 72 1011.7
20260504172458 58 323 4.3 8.7 0.00 0.00 0.00 72 1011.7
20260504171958 58 328 5.2 8.7 0.00 0.00 0.00 72 1011.7
20260504171458 58 354 5.2 8.7 0.00 0.00 0.00 72 1011.8
20260504170958 58 326 5.2 8.7 0.00 0.00 0.00 71 1011.8
20260504170458 58 347 5.2 10.4 0.00 0.00 0.00 71 1011.8
20260504150958 60 359 4.3 9.6 0.00 0.00 0.00 70 1011.7
20260504150458 60 350 5.2 9.6 0.00 0.00 0.00 71 1011.7
20260504140958 60 354 5.2 9.6 0.00 0.00 0.00 72 1012.0
20260504140458 61 314 5.2 8.7 0.00 0.00 0.00 70 1011.9
20260504130458 59 266 2.6 5.2 0.00 0.04 0.00 73 1012.0
20260504110459 64 280 1.7 4.3 0.00 0.04 0.00 64 1012.3
20260504100459 61 354 3.5 7.8 0.00 0.04 0.00 67 1012.2
20260504081959 56 310 3.5 7.8 0.00 0.04 0.00 80 1012.2
20260504081459 56 330 4.3 7.8 0.00 0.04 0.00 80 1012.2
20260504080959 57 28 4.3 7.8 0.00 0.04 0.00 80 1012.2
20260504080459 56 35 3.5 8.7 0.00 0.04 0.00 80 1012.2
20260504050459 52 359 0.0 1.7 0.00 0.04 0.00 87 1010.8
20260504045959 52 359 0.0 0.9 0.00 0.04 0.00 87 1010.7
20260504045459 52 10 0.9 1.7 0.00 0.04 0.00 87 1010.6
20260504044959 52 359 0.9 1.7 0.00 0.04 0.00 87 1010.5
20260504044459 52 359 0.9 1.7 0.00 0.04 0.00 87 1010.5
20260504043959 53 4 0.9 2.6 0.00 0.04 0.00 87 1010.6
20260504043459 53 320 0.9 2.6 0.00 0.04 0.00 87 1010.6
20260504042959 53 359 0.9 2.6 0.00 0.04 0.00 87 1010.6
20260504042459 53 359 0.9 3.5 0.00 0.04 0.00 87 1010.6